START_TIME,STEP,MOV.,M35,t_acc.,PL05,t_acc.,PL06,t_acc.,PL07,t_acc.
1979-02-28 21:00:13.350 ,1,0,0.,4.8,3.,4.8,4.,4.8,1.,4.8
1979-02-28 21:00:18.150 ,1,0,0.,4.8,12.,4.8,2.,4.8,1.,4.8
1979-02-28 21:00:22.950 ,1,0,0.,4.8,3.,4.8,3.,4.8,1.,4.8
1979-02-28 21:00:27.750 ,1,0,0.,4.8,7.,4.8,1.,4.8,2.,4.8
1979-02-28 21:00:32.550 ,1,0,0.,4.8,5.,4.8,5.,4.8,0.,4.8
1979-02-28 21:00:37.350 ,2,0,0.,4.8,6.,4.8,0.,4.8,1.,4.8
1979-02-28 21:00:42.150 ,2,0,0.,4.8,7.,4.8,1.,4.8,1.,4.8
1979-02-28 21:00:46.950 ,2,0,0.,4.8,2.,4.8,2.,4.8,1.,4.8
1979-02-28 21:00:51.750 ,2,0,0.,4.8,7.,4.8,2.,4.8,2.,4.8
1979-02-28 21:00:56.550 ,2,0,0.,4.8,5.,4.8,2.,4.8,0.,4.8
1979-02-28 21:01:01.350 ,3,0,0.,4.8,0.,4.8,4.,4.8,2.,4.8
1979-02-28 21:01:06.150 ,3,0,0.,4.8,6.,4.8,2.,4.8,0.,4.8
1979-02-28 21:01:10.950 ,3,0,0.,4.8,4.,4.8,2.,4.8,0.,4.8
1979-02-28 21:01:15.750 ,3,0,0.,4.8,4.,4.8,0.,4.8,0.,4.8
1979-02-28 21:01:20.550 ,3,0,0.,4.8,5.,4.8,0.,4.8,1.,4.8
1979-02-28 21:01:25.350 ,4,0,0.,4.8,3.,4.8,0.,4.8,0.,4.8
1979-02-28 21:01:30.150 ,4,0,0.,4.8,4.,4.8,0.,4.8,1.,4.8
1979-02-28 21:01:34.950 ,4,0,0.,4.8,3.,4.8,0.,4.8,0.,4.8
1979-02-28 21:01:39.750 ,4,0,0.,4.8,2.,4.8,2.,4.8,2.,4.8
1979-02-28 21:01:44.550 ,4,0,0.,4.8,2.,4.8,0.,4.8,0.,4.8
1979-02-28 21:01:49.350 ,5,0,0.,4.8,5.,4.8,1.,4.8,0.,4.8
1979-02-28 21:01:54.150 ,5,0,0.,4.8,5.,4.8,2.,4.8,0.,4.8
1979-02-28 21:01:58.950 ,5,0,0.,4.8,10.,4.8,2.,4.8,0.,4.8
1979-02-28 21:02:03.750 ,5,0,0.,4.8,5.,4.8,0.,4.8,0.,4.8
1979-02-28 21:02:08.550 ,5,0,0.,4.8,9.,4.8,2.,4.8,0.,4.8
1979-02-28 21:02:13.350 ,6,0,0.,4.8,4.,4.8,1.,4.8,0.,4.8
1979-02-28 21:02:18.150 ,6,0,0.,4.8,3.,4.8,2.,4.8,1.,4.8
1979-02-28 21:02:22.950 ,6,0,0.,4.8,4.,4.8,0.,4.8,0.,4.8
1979-02-28 21:02:27.750 ,6,0,0.,4.8,7.,4.8,1.,4.8,0.,4.8
1979-02-28 21:02:32.550 ,6,0,0.,4.8,10.,4.8,1.,4.8,0.,4.8
1979-02-28 21:02:37.350 ,7,0,0.,4.8,10.,4.8,1.,4.8,1.,4.8
1979-02-28 21:02:42.150 ,7,0,0.,4.8,8.,4.8,1.,4.8,1.,4.8
1979-02-28 21:02:46.950 ,7,0,0.,4.8,0.,4.8,0.,4.8,0.,4.8
1979-02-28 21:02:51.750 ,7,0,0.,4.8,0.,4.8,1.,4.8,0.,4.8
1979-02-28 21:02:56.550 ,7,0,0.,4.8,0.,4.8,2.,4.8,0.,4.8
1979-02-28 21:03:01.350 ,7,0,0.,4.8,0.,4.8,0.,4.8,0.,4.8
1979-02-28 21:03:06.150 ,7,0,0.,4.8,1.,4.8,1.,4.8,0.,4.8
1979-02-28 21:03:10.950 ,7,0,0.,4.8,0.,4.8,2.,4.8,0.,4.8
1979-02-28 21:03:15.750 ,7,0,0.,4.8,0.,4.8,1.,4.8,0.,4.8
1979-02-28 21:03:20.550 ,7,0,0.,4.8,2.,4.8,0.,4.8,1.,4.8
1979-02-28 21:03:25.350 ,6,0,0.,4.8,1.,4.8,0.,4.8,0.,4.8
1979-02-28 21:03:30.150 ,6,0,0.,4.8,2.,4.8,1.,4.8,0.,4.8
1979-02-28 21:03:34.950 ,6,0,0.,4.8,4.,4.8,5.,4.8,0.,4.8
1979-02-28 21:03:39.750 ,6,0,0.,4.8,9.,4.8,1.,4.8,0.,4.8
1979-02-28 21:03:44.550 ,6,0,0.,4.8,6.,4.8,2.,4.8,1.,4.8
1979-02-28 21:03:49.350 ,5,0,0.,4.8,7.,4.8,1.,4.8,0.,4.8
1979-02-28 21:03:54.150 ,5,0,0.,4.8,5.,4.8,4.,4.8,0.,4.8
1979-02-28 21:03:58.950 ,5,0,0.,4.8,1.,4.8,1.,4.8,0.,4.8
1979-02-28 21:04:03.750 ,5,0,0.,4.8,9.,4.8,0.,4.8,0.,4.8
1979-02-28 21:04:08.550 ,5,0,0.,4.8,5.,4.8,0.,4.8,2.,4.8
1979-02-28 21:04:13.350 ,4,0,0.,4.8,6.,4.8,2.,4.8,1.,4.8
1979-02-28 21:04:18.150 ,4,0,0.,4.8,6.,4.8,1.,4.8,0.,4.8
1979-02-28 21:04:22.950 ,4,0,0.,4.8,7.,4.8,0.,4.8,0.,4.8
1979-02-28 21:04:27.750 ,4,0,0.,4.8,2.,4.8,2.,4.8,1.,4.8
1979-02-28 21:04:32.550 ,4,0,0.,4.8,6.,4.8,0.,4.8,0.,4.8
1979-02-28 21:04:37.350 ,3,0,0.,4.8,2.,4.8,0.,4.8,0.,4.8
1979-02-28 21:04:42.150 ,3,0,0.,4.8,6.,4.8,1.,4.8,0.,4.8
1979-02-28 21:04:46.950 ,3,0,0.,4.8,3.,4.8,1.,4.8,2.,4.8
1979-02-28 21:04:51.750 ,3,0,0.,4.8,3.,4.8,2.,4.8,0.,4.8
1979-02-28 21:04:56.550 ,3,0,0.,4.8,2.,4.8,0.,4.8,0.,4.8
1979-02-28 21:05:01.350 ,2,0,0.,4.8,4.,4.8,0.,4.8,0.,4.8
1979-02-28 21:05:06.150 ,2,0,0.,4.8,10.,4.8,3.,4.8,0.,4.8
1979-02-28 21:05:10.950 ,2,0,0.,4.8,4.,4.8,1.,4.8,2.,4.8
1979-02-28 21:05:15.750 ,2,0,0.,4.8,6.,4.8,1.,4.8,1.,4.8
1979-02-28 21:05:20.550 ,2,0,0.,4.8,9.,4.8,1.,4.8,2.,4.8
1979-02-28 21:05:25.350 ,1,0,0.,4.8,5.,4.8,0.,4.8,1.,4.8
1979-02-28 21:05:30.150 ,1,0,0.,4.8,9.,4.8,1.,4.8,1.,4.8
1979-02-28 21:05:34.950 ,1,0,0.,4.8,9.,4.8,3.,4.8,0.,4.8
1979-02-28 21:05:39.750 ,1,0,0.,4.8,9.,4.8,2.,4.8,1.,4.8
1979-02-28 21:05:44.550 ,1,0,0.,4.8,9.,4.8,2.,4.8,1.,4.8
1979-02-28 21:05:49.350 ,0,0,0.,4.8,8.,4.8,0.,4.8,0.,4.8
1979-02-28 21:05:54.150 ,0,0,0.,4.8,6.,4.8,2.,4.8,0.,4.8
1979-02-28 21:05:58.950 ,0,0,0.,4.8,8.,4.8,1.,4.8,0.,4.8
1979-02-28 21:06:03.750 ,0,0,0.,4.8,5.,4.8,3.,4.8,3.,4.8
1979-02-28 21:06:08.550 ,0,0,0.,4.8,6.,4.8,0.,4.8,2.,4.8
1979-02-28 21:06:13.350 ,0,0,0.,4.8,12.,4.8,0.,4.8,0.,4.8
1979-02-28 21:06:18.150 ,0,0,0.,4.8,5.,4.8,2.,4.8,1.,4.8
1979-02-28 21:06:22.950 ,0,0,0.,4.8,6.,4.8,1.,4.8,1.,4.8
1979-02-28 21:06:27.750 ,0,0,0.,4.8,9.,4.8,1.,4.8,1.,4.8
1979-02-28 21:06:32.550 ,0,0,0.,4.8,7.,4.8,4.,4.8,1.,4.8
1979-02-28 21:06:37.350 ,1,0,0.,4.8,6.,4.8,4.,4.8,0.,4.8
1979-02-28 21:06:42.150 ,1,0,0.,4.8,6.,4.8,0.,4.8,2.,4.8
1979-02-28 21:06:46.950 ,1,0,0.,4.8,8.,4.8,2.,4.8,2.,4.8
1979-02-28 21:06:51.750 ,1,0,0.,4.8,2.,4.8,2.,4.8,1.,4.8
1979-02-28 21:06:56.550 ,1,0,0.,4.8,9.,4.8,2.,4.8,2.,4.8
1979-02-28 21:07:01.350 ,2,0,0.,4.8,8.,4.8,2.,4.8,0.,4.8
1979-02-28 21:07:06.150 ,2,0,0.,4.8,6.,4.8,0.,4.8,2.,4.8
1979-02-28 21:07:10.950 ,2,0,0.,4.8,5.,4.8,1.,4.8,0.,4.8
1979-02-28 21:07:15.750 ,2,0,0.,4.8,4.,4.8,2.,4.8,1.,4.8
1979-02-28 21:07:20.550 ,2,0,0.,4.8,6.,4.8,1.,4.8,0.,4.8
1979-02-28 21:07:25.350 ,3,0,0.,4.8,8.,4.8,1.,4.8,0.,4.8
1979-02-28 21:07:30.150 ,3,0,0.,4.8,4.,4.8,2.,4.8,2.,4.8
1979-02-28 21:07:34.950 ,3,0,0.,4.8,5.,4.8,1.,4.8,1.,4.8
1979-02-28 21:07:39.750 ,3,0,0.,4.8,2.,4.8,2.,4.8,0.,4.8
1979-02-28 21:07:44.550 ,3,0,0.,4.8,8.,4.8,1.,4.8,1.,4.8
1979-02-28 21:07:49.350 ,4,0,0.,4.8,5.,4.8,0.,4.8,0.,4.8
1979-02-28 21:07:54.150 ,4,0,0.,4.8,6.,4.8,1.,4.8,0.,4.8
1979-02-28 21:07:58.950 ,4,0,0.,4.8,7.,4.8,0.,4.8,0.,4.8
1979-02-28 21:08:03.750 ,4,0,0.,4.8,6.,4.8,0.,4.8,0.,4.8
1979-02-28 21:08:08.550 ,4,0,0.,4.8,3.,4.8,1.,4.8,1.,4.8
1979-02-28 21:08:13.350 ,5,0,0.,4.8,12.,4.8,0.,4.8,0.,4.8
1979-02-28 21:08:18.150 ,5,0,0.,4.8,5.,4.8,0.,4.8,1.,4.8
1979-02-28 21:08:22.950 ,5,0,0.,4.8,7.,4.8,2.,4.8,1.,4.8
1979-02-28 21:08:27.750 ,5,0,0.,4.8,5.,4.8,3.,4.8,0.,4.8
1979-02-28 21:08:32.550 ,5,0,0.,4.8,7.,4.8,4.,4.8,1.,4.8
1979-02-28 21:08:37.350 ,6,0,0.,4.8,6.,4.8,2.,4.8,0.,4.8
1979-02-28 21:08:42.150 ,6,0,0.,4.8,12.,4.8,4.,4.8,0.,4.8
1979-02-28 21:08:46.950 ,6,0,0.,4.8,4.,4.8,1.,4.8,0.,4.8
1979-02-28 21:08:51.740 ,6,0,0.,4.8,10.,4.8,0.,4.8,0.,4.8
1979-02-28 21:08:56.550 ,6,0,0.,4.8,4.,4.8,3.,4.8,0.,4.8
1979-02-28 21:09:01.350 ,7,0,0.,4.8,5.,4.8,1.,4.8,1.,4.8
1979-02-28 21:09:06.150 ,7,0,0.,4.8,5.,4.8,2.,4.8,1.,4.8
1979-02-28 21:09:10.950 ,7,0,0.,4.8,0.,4.8,0.,4.8,1.,4.8
1979-02-28 21:09:15.740 ,7,0,0.,4.8,0.,4.8,0.,4.8,1.,4.8
1979-02-28 21:09:20.550 ,7,0,0.,4.8,0.,4.8,0.,4.8,0.,4.8
1979-02-28 21:09:25.350 ,7,0,0.,4.8,1.,4.8,0.,4.8,0.,4.8
1979-02-28 21:09:30.150 ,7,0,0.,4.8,0.,4.8,1.,4.8,0.,4.8
1979-02-28 21:09:34.950 ,7,0,0.,4.8,0.,4.8,0.,4.8,0.,4.8
1979-02-28 21:09:39.740 ,7,0,0.,4.8,0.,4.8,0.,4.8,2.,4.8
1979-02-28 21:09:44.550 ,7,0,0.,4.8,1.,4.8,0.,4.8,0.,4.8
1979-02-28 21:09:49.350 ,6,0,0.,4.8,0.,4.8,0.,4.8,2.,4.8
1979-02-28 21:09:54.150 ,6,0,0.,4.8,2.,4.8,2.,4.8,0.,4.8
1979-02-28 21:09:58.950 ,6,0,0.,4.8,8.,4.8,3.,4.8,0.,4.8
1979-02-28 21:10:03.740 ,6,0,0.,4.8,9.,4.8,2.,4.8,1.,4.8
1979-02-28 21:10:08.550 ,6,0,0.,4.8,6.,4.8,0.,4.8,0.,4.8
1979-02-28 21:10:13.350 ,5,0,0.,4.8,7.,4.8,2.,4.8,1.,4.8
1979-02-28 21:10:18.150 ,5,0,0.,4.8,5.,4.8,0.,4.8,1.,4.8
1979-02-28 21:10:22.950 ,5,0,0.,4.8,9.,4.8,3.,4.8,1.,4.8
1979-02-28 21:10:27.740 ,5,0,0.,4.8,10.,4.8,2.,4.8,1.,4.8
1979-02-28 21:10:32.550 ,5,0,0.,4.8,5.,4.8,2.,4.8,0.,4.8
1979-02-28 21:10:37.350 ,4,0,0.,4.8,9.,4.8,1.,4.8,1.,4.8
1979-02-28 21:10:42.150 ,4,0,0.,4.8,6.,4.8,2.,4.8,1.,4.8
1979-02-28 21:10:46.950 ,4,0,0.,4.8,9.,4.8,1.,4.8,1.,4.8
1979-02-28 21:10:51.740 ,4,0,0.,4.8,4.,4.8,2.,4.8,1.,4.8
1979-02-28 21:10:56.550 ,4,0,0.,4.8,3.,4.8,2.,4.8,0.,4.8
1979-02-28 21:11:01.350 ,3,0,0.,4.8,8.,4.8,2.,4.8,1.,4.8
1979-02-28 21:11:06.150 ,3,0,0.,4.8,4.,4.8,3.,4.8,0.,4.8
1979-02-28 21:11:10.950 ,3,0,0.,4.8,3.,4.8,0.,4.8,3.,4.8
1979-02-28 21:11:15.740 ,3,0,0.,4.8,9.,4.8,1.,4.8,1.,4.8
1979-02-28 21:11:20.550 ,3,0,0.,4.8,9.,4.8,2.,4.8,0.,4.8
1979-02-28 21:11:25.350 ,2,0,0.,4.8,5.,4.8,3.,4.8,1.,4.8
1979-02-28 21:11:30.150 ,2,0,0.,4.8,4.,4.8,2.,4.8,2.,4.8
1979-02-28 21:11:34.950 ,2,0,0.,4.8,10.,4.8,1.,4.8,0.,4.8
1979-02-28 21:11:39.740 ,2,0,0.,4.8,4.,4.8,1.,4.8,0.,4.8
1979-02-28 21:11:44.550 ,2,0,0.,4.8,2.,4.8,1.,4.8,0.,4.8
1979-02-28 21:11:49.350 ,1,0,0.,4.8,4.,4.8,1.,4.8,1.,4.8
1979-02-28 21:11:54.150 ,1,0,0.,4.8,7.,4.8,1.,4.8,3.,4.8
1979-02-28 21:11:58.950 ,1,0,0.,4.8,7.,4.8,1.,4.8,0.,4.8
1979-02-28 21:12:03.740 ,1,0,0.,4.8,8.,4.8,2.,4.8,1.,4.8
1979-02-28 21:12:08.550 ,1,0,0.,4.8,8.,4.8,1.,4.8,1.,4.8
1979-02-28 21:12:13.350 ,0,0,0.,4.8,3.,4.8,1.,4.8,0.,4.8
1979-02-28 21:12:18.150 ,0,0,0.,4.8,8.,4.8,1.,4.8,3.,4.8
1979-02-28 21:12:22.950 ,0,0,0.,4.8,2.,4.8,1.,4.8,1.,4.8
1979-02-28 21:12:27.740 ,0,0,0.,4.8,10.,4.8,1.,4.8,0.,4.8
1979-02-28 21:12:32.550 ,0,0,0.,4.8,1.,4.8,3.,4.8,1.,4.8
1979-02-28 21:12:37.350 ,0,0,0.,4.8,6.,4.8,2.,4.8,0.,4.8
1979-02-28 21:12:42.150 ,0,0,0.,4.8,11.,4.8,1.,4.8,0.,4.8
1979-02-28 21:12:46.950 ,0,0,0.,4.8,8.,4.8,2.,4.8,3.,4.8
1979-02-28 21:12:51.740 ,0,0,0.,4.8,12.,4.8,0.,4.8,1.,4.8
1979-02-28 21:12:56.550 ,0,0,0.,4.8,8.,4.8,2.,4.8,2.,4.8
1979-02-28 21:13:01.350 ,1,0,0.,4.8,8.,4.8,2.,4.8,0.,4.8
1979-02-28 21:13:06.150 ,1,0,0.,4.8,8.,4.8,1.,4.8,2.,4.8
1979-02-28 21:13:10.950 ,1,0,0.,4.8,6.,4.8,2.,4.8,1.,4.8
1979-02-28 21:13:15.740 ,1,0,0.,4.8,3.,4.8,0.,4.8,1.,4.8
1979-02-28 21:13:20.550 ,1,0,0.,4.8,2.,4.8,2.,4.8,3.,4.8
1979-02-28 21:13:25.350 ,2,0,0.,4.8,7.,4.8,2.,4.8,2.,4.8
1979-02-28 21:13:30.150 ,2,0,0.,4.8,11.,4.8,3.,4.8,0.,4.8
1979-02-28 21:13:34.950 ,2,0,0.,4.8,7.,4.8,1.,4.8,1.,4.8
1979-02-28 21:13:39.740 ,2,0,0.,4.8,4.,4.8,1.,4.8,0.,4.8
1979-02-28 21:13:44.550 ,2,0,0.,4.8,11.,4.8,1.,4.8,1.,4.8
1979-02-28 21:13:49.350 ,3,0,0.,4.8,2.,4.8,1.,4.8,0.,4.8
1979-02-28 21:13:54.150 ,3,0,0.,4.8,4.,4.8,3.,4.8,2.,4.8
1979-02-28 21:13:58.950 ,3,0,0.,4.8,8.,4.8,1.,4.8,0.,4.8
1979-02-28 21:14:03.740 ,3,0,0.,4.8,4.,4.8,0.,4.8,0.,4.8
1979-02-28 21:14:08.550 ,3,0,0.,4.8,5.,4.8,2.,4.8,2.,4.8
1979-02-28 21:14:13.350 ,4,0,0.,4.8,3.,4.8,1.,4.8,2.,4.8
1979-02-28 21:14:18.150 ,4,0,0.,4.8,6.,4.8,0.,4.8,1.,4.8
1979-02-28 21:14:22.950 ,4,0,0.,4.8,3.,4.8,2.,4.8,0.,4.8
1979-02-28 21:14:27.740 ,4,0,0.,4.8,5.,4.8,1.,4.8,1.,4.8
1979-02-28 21:14:32.550 ,4,0,0.,4.8,7.,4.8,4.,4.8,0.,4.8
1979-02-28 21:14:37.350 ,5,0,0.,4.8,4.,4.8,1.,4.8,1.,4.8
1979-02-28 21:14:42.150 ,5,0,0.,4.8,3.,4.8,2.,4.8,0.,4.8
1979-02-28 21:14:46.950 ,5,0,0.,4.8,4.,4.8,3.,4.8,3.,4.8
1979-02-28 21:14:51.740 ,5,0,0.,4.8,7.,4.8,1.,4.8,2.,4.8
1979-02-28 21:14:56.550 ,5,0,0.,4.8,6.,4.8,3.,4.8,1.,4.8
1979-02-28 21:15:01.350 ,6,0,0.,4.8,12.,4.8,1.,4.8,0.,4.8
1979-02-28 21:15:06.150 ,6,0,0.,4.8,9.,4.8,3.,4.8,1.,4.8
1979-02-28 21:15:10.950 ,6,0,0.,4.8,8.,4.8,2.,4.8,0.,4.8
1979-02-28 21:15:15.740 ,6,0,0.,4.8,6.,4.8,0.,4.8,2.,4.8
1979-02-28 21:15:20.550 ,6,0,0.,4.8,9.,4.8,1.,4.8,0.,4.8
1979-02-28 21:15:25.350 ,7,0,0.,4.8,5.,4.8,3.,4.8,0.,4.8
1979-02-28 21:15:30.150 ,7,0,0.,4.8,7.,4.8,0.,4.8,0.,4.8
1979-02-28 21:15:34.950 ,7,0,0.,4.8,0.,4.8,0.,4.8,0.,4.8
1979-02-28 21:15:39.740 ,7,0,0.,4.8,0.,4.8,1.,4.8,0.,4.8
1979-02-28 21:15:44.550 ,7,0,0.,4.8,0.,4.8,0.,4.8,1.,4.8
1979-02-28 21:15:49.350 ,7,0,0.,4.8,1.,4.8,0.,4.8,0.,4.8
1979-02-28 21:15:54.150 ,7,0,0.,4.8,0.,4.8,0.,4.8,0.,4.8
1979-02-28 21:15:58.950 ,7,0,0.,4.8,0.,4.8,0.,4.8,0.,4.8
1979-02-28 21:16:03.740 ,7,0,0.,4.8,3.,4.8,1.,4.8,0.,4.8
1979-02-28 21:16:08.550 ,7,0,0.,4.8,1.,4.8,0.,4.8,2.,4.8
1979-02-28 21:16:13.350 ,6,0,0.,4.8,0.,4.8,0.,4.8,0.,4.8
1979-02-28 21:16:18.150 ,6,0,0.,4.8,0.,4.8,0.,4.8,1.,4.8
1979-02-28 21:16:22.950 ,6,0,0.,4.8,11.,4.8,4.,4.8,1.,4.8
1979-02-28 21:16:27.740 ,6,0,0.,4.8,14.,4.8,0.,4.8,0.,4.8
1979-02-28 21:16:32.550 ,6,0,0.,4.8,6.,4.8,2.,4.8,2.,4.8
1979-02-28 21:16:37.350 ,5,0,0.,4.8,13.,4.8,2.,4.8,1.,4.8
1979-02-28 21:16:42.150 ,5,0,0.,4.8,5.,4.8,2.,4.8,0.,4.8
1979-02-28 21:16:46.950 ,5,0,0.,4.8,9.,4.8,4.,4.8,1.,4.8
1979-02-28 21:16:51.740 ,5,0,0.,4.8,6.,4.8,2.,4.8,0.,4.8
1979-02-28 21:16:56.550 ,5,0,0.,4.8,6.,4.8,3.,4.8,1.,4.8
1979-02-28 21:17:01.350 ,4,0,0.,4.8,5.,4.8,1.,4.8,2.,4.8
1979-02-28 21:17:06.150 ,4,0,0.,4.8,15.,4.8,1.,4.8,0.,4.8
1979-02-28 21:17:10.950 ,4,0,0.,4.8,5.,4.8,1.,4.8,0.,4.8
1979-02-28 21:17:15.740 ,4,0,0.,4.8,6.,4.8,2.,4.8,0.,4.8
1979-02-28 21:17:20.550 ,4,0,0.,4.8,3.,4.8,2.,4.8,2.,4.8
1979-02-28 21:17:25.340 ,3,0,0.,4.8,6.,4.8,1.,4.8,0.,4.8
1979-02-28 21:17:30.140 ,3,0,0.,4.8,11.,4.8,0.,4.8,0.,4.8
1979-02-28 21:17:34.940 ,3,0,0.,4.8,3.,4.8,1.,4.8,1.,4.8
1979-02-28 21:17:39.740 ,3,0,0.,4.8,5.,4.8,1.,4.8,0.,4.8
1979-02-28 21:17:44.540 ,3,0,0.,4.8,8.,4.8,0.,4.8,0.,4.8
1979-02-28 21:17:49.340 ,2,0,0.,4.8,2.,4.8,1.,4.8,1.,4.8
1979-02-28 21:17:54.140 ,2,0,0.,4.8,5.,4.8,0.,4.8,0.,4.8
1979-02-28 21:17:58.940 ,2,0,0.,4.8,4.,4.8,0.,4.8,1.,4.8
1979-02-28 21:18:03.740 ,2,0,0.,4.8,7.,4.8,3.,4.8,2.,4.8
1979-02-28 21:18:08.540 ,2,0,0.,4.8,5.,4.8,2.,4.8,1.,4.8
1979-02-28 21:18:13.340 ,1,0,0.,4.8,5.,4.8,0.,4.8,2.,4.8
1979-02-28 21:18:18.140 ,1,0,0.,4.8,6.,4.8,1.,4.8,0.,4.8
1979-02-28 21:18:22.940 ,1,0,0.,4.8,6.,4.8,2.,4.8,1.,4.8
1979-02-28 21:18:27.740 ,1,0,0.,4.8,3.,4.8,0.,4.8,0.,4.8
1979-02-28 21:18:32.540 ,1,0,0.,4.8,6.,4.8,2.,4.8,0.,4.8
1979-02-28 21:18:37.340 ,0,0,0.,4.8,9.,4.8,1.,4.8,0.,4.8
1979-02-28 21:18:42.140 ,0,0,0.,4.8,4.,4.8,1.,4.8,0.,4.8
1979-02-28 21:18:46.940 ,0,0,0.,4.8,8.,4.8,1.,4.8,0.,4.8
1979-02-28 21:18:51.740 ,0,0,0.,4.8,8.,4.8,0.,4.8,0.,4.8
1979-02-28 21:18:56.540 ,0,0,0.,4.8,10.,4.8,1.,4.8,0.,4.8
1979-02-28 21:19:01.340 ,0,0,0.,4.8,9.,4.8,2.,4.8,2.,4.8
1979-02-28 21:19:06.140 ,0,0,0.,4.8,10.,4.8,0.,4.8,0.,4.8
1979-02-28 21:19:10.940 ,0,0,0.,4.8,9.,4.8,4.,4.8,0.,4.8
1979-02-28 21:19:15.740 ,0,0,0.,4.8,7.,4.8,3.,4.8,0.,4.8
1979-02-28 21:19:20.540 ,0,0,0.,4.8,4.,4.8,2.,4.8,1.,4.8
1979-02-28 21:19:25.340 ,1,0,0.,4.8,10.,4.8,1.,4.8,0.,4.8
1979-02-28 21:19:30.140 ,1,0,0.,4.8,8.,4.8,3.,4.8,0.,4.8
1979-02-28 21:19:34.940 ,1,0,0.,4.8,3.,4.8,2.,4.8,2.,4.8
1979-02-28 21:19:39.740 ,1,0,0.,4.8,7.,4.8,3.,4.8,0.,4.8
1979-02-28 21:19:44.540 ,1,0,0.,4.8,6.,4.8,2.,4.8,0.,4.8
1979-02-28 21:19:49.340 ,2,0,0.,4.8,6.,4.8,2.,4.8,0.,4.8
1979-02-28 21:19:54.140 ,2,0,0.,4.8,4.,4.8,2.,4.8,1.,4.8
1979-02-28 21:19:58.940 ,2,0,0.,4.8,4.,4.8,5.,4.8,0.,4.8
1979-02-28 21:20:03.740 ,2,0,0.,4.8,2.,4.8,2.,4.8,1.,4.8
1979-02-28 21:20:08.540 ,2,0,0.,4.8,2.,4.8,1.,4.8,2.,4.8
1979-02-28 21:20:13.340 ,3,0,0.,4.8,8.,4.8,2.,4.8,0.,4.8
1979-02-28 21:20:18.140 ,3,0,0.,4.8,2.,4.8,0.,4.8,1.,4.8
1979-02-28 21:20:22.940 ,3,0,0.,4.8,6.,4.8,1.,4.8,1.,4.8
1979-02-28 21:20:27.740 ,3,0,0.,4.8,9.,4.8,1.,4.8,0.,4.8
1979-02-28 21:20:32.540 ,3,0,0.,4.8,6.,4.8,1.,4.8,0.,4.8
1979-02-28 21:20:37.340 ,4,0,0.,4.8,3.,4.8,5.,4.8,4.,4.8
1979-02-28 21:20:42.140 ,4,0,0.,4.8,4.,4.8,1.,4.8,0.,4.8
1979-02-28 21:20:46.940 ,4,0,0.,4.8,6.,4.8,0.,4.8,1.,4.8
1979-02-28 21:20:51.740 ,4,0,0.,4.8,7.,4.8,2.,4.8,1.,4.8
1979-02-28 21:20:56.540 ,4,0,0.,4.8,2.,4.8,1.,4.8,1.,4.8
1979-02-28 21:21:01.340 ,5,0,0.,4.8,9.,4.8,0.,4.8,1.,4.8
1979-02-28 21:21:06.140 ,5,0,0.,4.8,1.,4.8,2.,4.8,0.,4.8
1979-02-28 21:21:10.940 ,5,0,0.,4.8,10.,4.8,4.,4.8,0.,4.8
1979-02-28 21:21:15.740 ,5,0,0.,4.8,12.,4.8,3.,4.8,0.,4.8
1979-02-28 21:21:20.540 ,5,0,0.,4.8,3.,4.8,2.,4.8,1.,4.8
1979-02-28 21:21:25.340 ,6,0,0.,4.8,9.,4.8,2.,4.8,2.,4.8
1979-02-28 21:21:30.140 ,6,0,0.,4.8,7.,4.8,2.,4.8,0.,4.8
1979-02-28 21:21:34.940 ,6,0,0.,4.8,13.,4.8,1.,4.8,0.,4.8
1979-02-28 21:21:39.740 ,6,0,0.,4.8,10.,4.8,1.,4.8,0.,4.8
1979-02-28 21:21:44.540 ,6,0,0.,4.8,7.,4.8,1.,4.8,1.,4.8
1979-02-28 21:21:49.340 ,7,0,0.,4.8,9.,4.8,3.,4.8,1.,4.8
1979-02-28 21:21:54.140 ,7,0,0.,4.8,10.,4.8,1.,4.8,1.,4.8
1979-02-28 21:21:58.940 ,7,0,0.,4.8,0.,4.8,2.,4.8,0.,4.8
1979-02-28 21:22:03.740 ,7,0,0.,4.8,0.,4.8,1.,4.8,0.,4.8
1979-02-28 21:22:08.540 ,7,0,0.,4.8,0.,4.8,0.,4.8,0.,4.8
1979-02-28 21:22:13.340 ,7,0,0.,4.8,0.,4.8,0.,4.8,0.,4.8
1979-02-28 21:22:18.140 ,7,0,0.,4.8,0.,4.8,0.,4.8,1.,4.8
1979-02-28 21:22:22.940 ,7,0,0.,4.8,0.,4.8,1.,4.8,0.,4.8
1979-02-28 21:22:27.740 ,7,0,0.,4.8,1.,4.8,0.,4.8,0.,4.8
1979-02-28 21:22:32.540 ,7,0,0.,4.8,0.,4.8,0.,4.8,0.,4.8
1979-02-28 21:22:37.340 ,6,0,0.,4.8,1.,4.8,0.,4.8,1.,4.8
1979-02-28 21:22:42.140 ,6,0,0.,4.8,0.,4.8,1.,4.8,0.,4.8
1979-02-28 21:22:46.940 ,6,0,0.,4.8,9.,4.8,2.,4.8,1.,4.8
1979-02-28 21:22:51.740 ,6,0,0.,4.8,3.,4.8,1.,4.8,2.,4.8
1979-02-28 21:22:56.540 ,6,0,0.,4.8,4.,4.8,3.,4.8,0.,4.8
1979-02-28 21:23:01.340 ,5,0,0.,4.8,10.,4.8,2.,4.8,1.,4.8
1979-02-28 21:23:06.140 ,5,0,0.,4.8,11.,4.8,0.,4.8,1.,4.8
1979-02-28 21:23:10.940 ,5,0,0.,4.8,4.,4.8,0.,4.8,2.,4.8
1979-02-28 21:23:15.740 ,5,0,0.,4.8,8.,4.8,3.,4.8,2.,4.8
1979-02-28 21:23:20.540 ,5,0,0.,4.8,5.,4.8,5.,4.8,0.,4.8
1979-02-28 21:23:25.340 ,4,0,0.,4.8,10.,4.8,5.,4.8,0.,4.8
1979-02-28 21:23:30.140 ,4,0,0.,4.8,3.,4.8,2.,4.8,0.,4.8
1979-02-28 21:23:34.940 ,4,0,0.,4.8,6.,4.8,2.,4.8,0.,4.8
1979-02-28 21:23:39.740 ,4,0,0.,4.8,2.,4.8,1.,4.8,2.,4.8
1979-02-28 21:23:44.540 ,4,0,0.,4.8,5.,4.8,2.,4.8,0.,4.8
1979-02-28 21:23:49.340 ,3,0,0.,4.8,8.,4.8,3.,4.8,0.,4.8
1979-02-28 21:23:54.140 ,3,0,0.,4.8,7.,4.8,1.,4.8,1.,4.8
1979-02-28 21:23:58.940 ,3,0,0.,4.8,6.,4.8,0.,4.8,1.,4.8
1979-02-28 21:24:03.740 ,3,0,0.,4.8,5.,4.8,0.,4.8,1.,4.8
1979-02-28 21:24:08.540 ,3,0,0.,4.8,1.,4.8,3.,4.8,0.,4.8
1979-02-28 21:24:13.340 ,2,0,0.,4.8,5.,4.8,3.,4.8,1.,4.8
1979-02-28 21:24:18.140 ,2,0,0.,4.8,6.,4.8,2.,4.8,1.,4.8
1979-02-28 21:24:22.940 ,2,0,0.,4.8,3.,4.8,1.,4.8,2.,4.8
1979-02-28 21:24:27.740 ,2,0,0.,4.8,2.,4.8,3.,4.8,0.,4.8
1979-02-28 21:24:32.540 ,2,0,0.,4.8,3.,4.8,3.,4.8,2.,4.8
1979-02-28 21:24:37.340 ,1,0,0.,4.8,1.,4.8,0.,4.8,0.,4.8
1979-02-28 21:24:42.140 ,1,0,0.,4.8,5.,4.8,4.,4.8,0.,4.8
1979-02-28 21:24:46.940 ,1,0,0.,4.8,10.,4.8,0.,4.8,1.,4.8
1979-02-28 21:24:51.740 ,1,0,0.,4.8,12.,4.8,2.,4.8,1.,4.8
1979-02-28 21:24:56.540 ,1,0,0.,4.8,4.,4.8,3.,4.8,0.,4.8
1979-02-28 21:25:01.340 ,0,0,0.,4.8,8.,4.8,0.,4.8,1.,4.8
1979-02-28 21:25:06.140 ,0,0,0.,4.8,8.,4.8,1.,4.8,1.,4.8
1979-02-28 21:25:10.940 ,0,0,0.,4.8,6.,4.8,2.,4.8,0.,4.8
1979-02-28 21:25:15.740 ,0,0,0.,4.8,9.,4.8,1.,4.8,2.,4.8
1979-02-28 21:25:20.540 ,0,0,0.,4.8,9.,4.8,2.,4.8,2.,4.8
1979-02-28 21:25:25.340 ,0,0,0.,4.8,7.,4.8,1.,4.8,0.,4.8
1979-02-28 21:25:30.140 ,0,0,0.,4.8,12.,4.8,3.,4.8,1.,4.8
1979-02-28 21:25:34.940 ,0,0,0.,4.8,4.,4.8,3.,4.8,0.,4.8
1979-02-28 21:25:39.740 ,0,0,0.,4.8,5.,4.8,2.,4.8,0.,4.8
1979-02-28 21:25:44.540 ,0,0,0.,4.8,10.,4.8,2.,4.8,0.,4.8
1979-02-28 21:25:49.340 ,1,0,0.,4.8,5.,4.8,2.,4.8,1.,4.8
1979-02-28 21:25:54.140 ,1,0,0.,4.8,9.,4.8,2.,4.8,1.,4.8
1979-02-28 21:25:58.940 ,1,0,0.,4.8,4.,4.8,1.,4.8,0.,4.8
1979-02-28 21:26:03.740 ,1,0,0.,4.8,3.,4.8,5.,4.8,1.,4.8
1979-02-28 21:26:08.540 ,1,0,0.,4.8,12.,4.8,4.,4.8,1.,4.8
1979-02-28 21:26:13.340 ,2,0,0.,4.8,4.,4.8,3.,4.8,2.,4.8
1979-02-28 21:26:18.140 ,2,0,0.,4.8,3.,4.8,2.,4.8,0.,4.8
1979-02-28 21:26:22.940 ,2,0,0.,4.8,6.,4.8,0.,4.8,1.,4.8
1979-02-28 21:26:27.740 ,2,0,0.,4.8,8.,4.8,1.,4.8,0.,4.8
1979-02-28 21:26:32.540 ,2,0,0.,4.8,4.,4.8,3.,4.8,1.,4.8
1979-02-28 21:26:37.340 ,3,0,0.,4.8,2.,4.8,0.,4.8,0.,4.8
1979-02-28 21:26:42.140 ,3,0,0.,4.8,3.,4.8,0.,4.8,1.,4.8
1979-02-28 21:26:46.940 ,3,0,0.,4.8,5.,4.8,0.,4.8,1.,4.8
1979-02-28 21:26:51.740 ,3,0,0.,4.8,6.,4.8,2.,4.8,1.,4.8
1979-02-28 21:26:56.540 ,3,0,0.,4.8,5.,4.8,2.,4.8,1.,4.8
1979-02-28 21:27:01.340 ,4,0,0.,4.8,3.,4.8,0.,4.8,2.,4.8
1979-02-28 21:27:06.140 ,4,0,0.,4.8,2.,4.8,1.,4.8,2.,4.8
1979-02-28 21:27:10.940 ,4,0,0.,4.8,5.,4.8,2.,4.8,1.,4.8
1979-02-28 21:27:15.740 ,4,0,0.,4.8,3.,4.8,0.,4.8,0.,4.8
1979-02-28 21:27:20.540 ,4,0,0.,4.8,4.,4.8,2.,4.8,0.,4.8
1979-02-28 21:27:25.340 ,5,0,0.,4.8,6.,4.8,1.,4.8,0.,4.8
1979-02-28 21:27:30.140 ,5,0,0.,4.8,4.,4.8,1.,4.8,1.,4.8
1979-02-28 21:27:34.940 ,5,0,0.,4.8,8.,4.8,3.,4.8,1.,4.8
1979-02-28 21:27:39.740 ,5,0,0.,4.8,6.,4.8,3.,4.8,0.,4.8
1979-02-28 21:27:44.540 ,5,0,0.,4.8,6.,4.8,2.,4.8,0.,4.8
1979-02-28 21:27:49.340 ,6,0,0.,4.8,4.,4.8,0.,4.8,0.,4.8
1979-02-28 21:27:54.140 ,6,0,0.,4.8,10.,4.8,3.,4.8,0.,4.8
1979-02-28 21:27:58.940 ,6,0,0.,4.8,4.,4.8,1.,4.8,0.,4.8
1979-02-28 21:28:03.740 ,6,0,0.,4.8,9.,4.8,2.,4.8,1.,4.8
1979-02-28 21:28:08.540 ,6,0,0.,4.8,7.,4.8,3.,4.8,0.,4.8
1979-02-28 21:28:13.340 ,7,0,0.,4.8,4.,4.8,2.,4.8,0.,4.8
1979-02-28 21:28:18.140 ,7,0,0.,4.8,5.,4.8,0.,4.8,0.,4.8
1979-02-28 21:28:22.940 ,7,0,0.,4.8,0.,4.8,1.,4.8,1.,4.8
1979-02-28 21:28:27.740 ,7,0,0.,4.8,0.,4.8,0.,4.8,0.,4.8
1979-02-28 21:28:32.540 ,7,0,0.,4.8,1.,4.8,2.,4.8,0.,4.8
1979-02-28 21:28:37.340 ,7,0,0.,4.8,0.,4.8,1.,4.8,0.,4.8
1979-02-28 21:28:42.140 ,7,0,0.,4.8,1.,4.8,1.,4.8,2.,4.8
1979-02-28 21:28:46.940 ,7,0,0.,4.8,1.,4.8,1.,4.8,0.,4.8
1979-02-28 21:28:51.740 ,7,0,0.,4.8,0.,4.8,0.,4.8,1.,4.8
1979-02-28 21:28:56.540 ,7,0,0.,4.8,0.,4.8,0.,4.8,1.,4.8
1979-02-28 21:29:01.340 ,6,0,0.,4.8,0.,4.8,0.,4.8,0.,4.8
1979-02-28 21:29:06.140 ,6,0,0.,4.8,1.,4.8,0.,4.8,0.,4.8
1979-02-28 21:29:10.940 ,6,0,0.,4.8,7.,4.8,1.,4.8,2.,4.8
1979-02-28 21:29:15.740 ,6,0,0.,4.8,8.,4.8,1.,4.8,0.,4.8
1979-02-28 21:29:20.540 ,6,0,0.,4.8,5.,4.8,2.,4.8,0.,4.8
1979-02-28 21:29:25.340 ,5,0,0.,4.8,8.,4.8,0.,4.8,1.,4.8
1979-02-28 21:29:30.140 ,5,0,0.,4.8,10.,4.8,2.,4.8,0.,4.8
1979-02-28 21:29:34.940 ,5,0,0.,4.8,12.,4.8,1.,4.8,0.,4.8
1979-02-28 21:29:39.740 ,5,0,0.,4.8,11.,4.8,1.,4.8,1.,4.8
1979-02-28 21:29:44.540 ,5,0,0.,4.8,5.,4.8,1.,4.8,0.,4.8
1979-02-28 21:29:49.340 ,4,0,0.,4.8,2.,4.8,1.,4.8,0.,4.8
1979-02-28 21:29:54.140 ,4,0,0.,4.8,3.,4.8,1.,4.8,1.,4.8
1979-02-28 21:29:58.940 ,4,0,0.,4.8,2.,4.8,1.,4.8,0.,4.8
1979-02-28 21:30:03.740 ,4,0,0.,4.8,4.,4.8,0.,4.8,1.,4.8
1979-02-28 21:30:08.540 ,4,0,0.,4.8,3.,4.8,2.,4.8,0.,4.8
1979-02-28 21:30:13.340 ,3,0,0.,4.8,3.,4.8,0.,4.8,0.,4.8
1979-02-28 21:30:18.140 ,3,0,0.,4.8,1.,4.8,2.,4.8,0.,4.8
1979-02-28 21:30:22.940 ,3,0,0.,4.8,2.,4.8,0.,4.8,0.,4.8
1979-02-28 21:30:27.740 ,3,0,0.,4.8,0.,4.8,1.,4.8,1.,4.8
1979-02-28 21:30:32.540 ,3,0,0.,4.8,4.,4.8,1.,4.8,1.,4.8
1979-02-28 21:30:37.340 ,2,0,0.,4.8,7.,4.8,0.,4.8,1.,4.8
1979-02-28 21:30:42.140 ,2,0,0.,4.8,4.,4.8,0.,4.8,0.,4.8
1979-02-28 21:30:46.940 ,2,0,0.,4.8,4.,4.8,3.,4.8,0.,4.8
1979-02-28 21:30:51.740 ,2,0,0.,4.8,8.,4.8,2.,4.8,0.,4.8
1979-02-28 21:30:56.540 ,2,0,0.,4.8,10.,4.8,1.,4.8,0.,4.8
1979-02-28 21:31:01.340 ,1,0,0.,4.8,9.,4.8,5.,4.8,0.,4.8
1979-02-28 21:31:06.140 ,1,0,0.,4.8,6.,4.8,0.,4.8,3.,4.8
1979-02-28 21:31:10.940 ,1,0,0.,4.8,6.,4.8,1.,4.8,3.,4.8
1979-02-28 21:31:15.740 ,1,0,0.,4.8,6.,4.8,2.,4.8,1.,4.8
1979-02-28 21:31:20.540 ,1,0,0.,4.8,7.,4.8,6.,4.8,3.,4.8
1979-02-28 21:31:25.340 ,0,0,0.,4.8,7.,4.8,1.,4.8,0.,4.8
1979-02-28 21:31:30.140 ,0,0,0.,4.8,2.,4.8,1.,4.8,1.,4.8
1979-02-28 21:31:34.940 ,0,0,0.,4.8,6.,4.8,2.,4.8,1.,4.8
1979-02-28 21:31:39.740 ,0,0,0.,4.8,5.,4.8,1.,4.8,1.,4.8
1979-02-28 21:31:44.540 ,0,0,0.,4.8,3.,4.8,0.,4.8,0.,4.8
1979-02-28 21:31:49.340 ,0,0,0.,4.8,5.,4.8,2.,4.8,0.,4.8
1979-02-28 21:31:54.140 ,0,0,0.,4.8,8.,4.8,0.,4.8,2.,4.8
1979-02-28 21:31:58.940 ,0,0,0.,4.8,6.,4.8,1.,4.8,0.,4.8
1979-02-28 21:32:03.740 ,0,0,0.,4.8,8.,4.8,2.,4.8,1.,4.8
1979-02-28 21:32:08.540 ,0,0,0.,4.8,7.,4.8,1.,4.8,1.,4.8
1979-02-28 21:32:13.340 ,1,0,0.,4.8,3.,4.8,1.,4.8,1.,4.8
1979-02-28 21:32:18.140 ,1,0,0.,4.8,5.,4.8,4.,4.8,0.,4.8
1979-02-28 21:32:22.940 ,1,0,0.,4.8,7.,4.8,1.,4.8,1.,4.8
1979-02-28 21:32:27.740 ,1,0,0.,4.8,10.,4.8,5.,4.8,1.,4.8
1979-02-28 21:32:32.540 ,1,0,0.,4.8,8.,4.8,2.,4.8,1.,4.8
1979-02-28 21:32:37.340 ,2,0,0.,4.8,8.,4.8,1.,4.8,2.,4.8
1979-02-28 21:32:42.140 ,2,0,0.,4.8,6.,4.8,1.,4.8,1.,4.8
1979-02-28 21:32:46.940 ,2,0,0.,4.8,1.,4.8,0.,4.8,0.,4.8
1979-02-28 21:32:51.740 ,2,0,0.,4.8,3.,4.8,3.,4.8,0.,4.8
1979-02-28 21:32:56.540 ,2,0,0.,4.8,2.,4.8,4.,4.8,0.,4.8
1979-02-28 21:33:01.340 ,3,0,0.,4.8,5.,4.8,2.,4.8,0.,4.8